Wind_Speed
24 29 30 27 25 25 25 25 26 29 30 31 33 32 32 28 28 28 26 25 25 23 23 22 21 21 23 25 21 20 20 19
31 30 31 30 32 25 25 22 25 27 28 28 31 31 29 27 27 27 25 24 23 22 22 22 22 21 18 22 19 18 14 15
33 37 36 35 33 32 22 22 21 25 26 29 31 30 27 25 26 25 24 22 20 20 21 22 20 17 16 18 15 14 14 14
33 34 33 30 30 36 30 26 23 25 26 28 28 27 25 25 24 23 22 20 17 17 18 17 13 12 13 14 14 11 10 12
30 32 32 33 33 36 34 28 27 27 26 30 30 26 22 25 22 21 21 19 16 15 13 8 9 11 11 11 14 11 8 10
31 33 33 35 35 36 36 33 29 26 27 28 27 24 27 23 21 19 19 17 15 12 9 11 9 7 10 10 11 9 6 9
28 34 37 32 33 34 36 32 31 30 27 22 22 23 25 23 20 18 16 14 12 10 11 8 6 9 9 7 8 6 7 4
32 33 38 41 39 36 34 24 28 30 26 21 21 25 20 19 18 17 16 13 12 10 12 7 7 7 7 7 8 7 4 4
33 38 34 36 35 34 30 29 32 26 20 20 19 21 18 18 17 18 14 16 14 15 11 8 10 8 6 5 7 7 6 4
28 37 39 39 38 37 34 32 28 30 19 24 22 21 17 17 16 21 18 19 16 17 16 13 12 10 9 8 9 9 6 7
28 30 37 41 38 38 39 31 30 33 30 21 19 18 16 19 17 19 16 19 20 17 17 15 14 15 15 14 12 11 8 7
32 28 35 34 29 28 29 31 24 32 24 19 20 21 20 19 21 20 21 18 19 18 18 17 15 17 15 15 17 14 11 11
34 30 33 37 33 26 27 28 28 23 23 24 25 25 23 25 24 22 21 24 23 21 20 19 18 15 17 8 16 17 19 17
33 32 33 34 32 28 25 25 27 27 29 27 29 30 29 29 27 27 26 24 24 25 26 23 19 20 11 6 2 10 19 20
34 33 35 33 32 27 26 27 26 30 32 32 27 31 28 29 28 29 28 28 28 28 30 27 25 23 23 11 2 4 4 13
35 33 36 38 34 30 31 27 26 29 32 36 35 34 31 31 30 27 28 31 29 29 29 29 28 29 22 27 13 3 3 1
36 37 38 40 39 35 33 29 31 33 35 35 34 37 35 35 32 30 30 31 31 29 30 29 31 23 22 12 18 9 5 2
38 38 40 42 42 43 38 33 35 35 34 34 36 35 37 35 34 33 33 32 30 32 28 29 31 29 21 21 14 6 6 6
40 40 40 43 44 44 41 41 38 38 38 35 34 33 35 39 36 35 33 31 29 29 28 27 27 27 25 19 18 12 10 8
42 40 38 42 41 43 45 44 41 37 39 31 32 35 36 40 39 36 33 32 30 28 26 23 22 24 21 18 17 13 11 12
Wind_Direction
148 143 141 138 133 124 132 139 139 139 142 148 147 143 142 142 136 131 127 121 117 112 109 108 111 102 93 85 116 108 97 84
137 135 132 127 119 116 122 139 144 141 142 148 146 147 145 145 140 135 130 124 120 113 108 110 108 104 95 78 113 111 97 83
144 141 140 134 133 137 136 146 144 138 144 145 145 146 147 146 142 138 132 128 121 114 106 106 103 89 94 89 92 102 92 81
152 151 147 145 142 137 145 145 145 140 145 148 142 144 144 146 144 142 135 130 122 120 120 106 99 102 98 102 78 92 83 82
148 151 147 142 146 147 146 143 147 140 137 137 139 138 150 147 151 150 143 139 135 130 126 106 116 118 112 106 86 89 95 93
143 153 151 149 149 150 149 151 146 141 146 142 137 141 152 156 160 158 155 151 147 139 127 126 135 118 109 124 103 84 107 105
132 150 150 148 153 153 152 155 152 148 139 139 145 141 160 162 167 169 165 161 164 155 158 167 145 118 105 101 106 112 105 106
138 139 150 154 152 158 155 150 139 141 148 141 155 156 178 175 176 183 185 179 177 192 183 174 171 155 154 149 136 139 137 124
142 146 141 142 147 152 157 151 139 154 155 163 161 167 176 188 192 196 195 207 191 186 185 187 191 190 174 172 156 158 157 145
137 141 156 163 165 165 162 156 165 174 180 179 173 183 191 200 200 201 203 198 203 190 182 183 186 202 202 182 185 177 186 169
149 160 161 159 161 161 159 166 181 191 188 179 188 198 197 213 216 215 220 205 196 196 194 204 210 211 210 192 190 205 214 188
162 160 173 171 165 173 173 181 190 178 189 210 212 217 217 215 217 220 222 207 199 203 211 212 222 211 202 219 210 215 217 210
170 170 171 171 173 174 178 190 189 205 216 226 224 226 228 219 219 221 221 214 215 211 210 211 221 210 219 224 213 217 221 220
175 178 179 178 178 180 188 199 214 223 230 228 230 228 222 220 226 226 230 216 216 211 212 215 219 217 205 196 222 236 228 221
178 178 185 183 186 191 196 208 217 227 234 232 233 226 225 226 228 227 228 223 218 216 217 217 218 218 220 203 168 221 203 226
185 184 186 190 193 197 201 209 214 221 221 228 228 224 228 225 228 228 224 228 224 222 219 221 221 223 222 221 223 166 169 244
191 188 193 198 202 204 209 213 216 217 223 227 227 234 227 225 221 222 222 225 222 222 223 224 222 223 220 218 223 207 233 174
194 195 197 200 205 211 211 213 214 216 217 222 222 223 221 218 225 220 222 227 223 224 228 230 224 226 231 225 214 187 160 226
195 197 198 204 207 209 214 219 221 218 219 220 223 218 223 223 222 222 220 223 231 226 229 230 227 228 222 204 196 208 215 175
195 200 202 205 206 209 217 220 221 222 215 221 222 220 225 229 235 229 228 226 226 226 229 229 232 229 210 193 194 189 194 215
Height
788 791 796 800 804 810 815 825 825 822 827 832 836 840 844 848 850 853 857 858 859 861 862 863 865 866 867 869 869 870 871 872
790 795 799 802 807 817 820 829 826 826 831 837 840 843 846 852 853 856 858 860 862 864 865 866 868 868 869 871 872 872 873 874
790 791 798 802 801 802 818 826 828 829 836 840 843 846 851 856 859 858 860 863 865 867 868 870 871 872 872 873 873 874 875 876
793 793 797 802 809 808 818 823 829 832 838 841 844 848 853 859 861 862 862 866 868 869 871 872 874 874 874 875 873 875 875 878
793 796 801 803 810 812 819 827 831 834 838 843 845 850 857 861 864 865 864 867 869 871 872 873 875 874 875 877 876 876 877 878
792 796 801 805 812 816 820 827 830 836 839 844 846 852 859 862 865 866 866 868 869 871 873 873 875 874 876 877 877 877 879 880
796 798 802 809 814 820 825 827 830 835 841 844 849 853 859 862 864 866 868 869 870 872 874 873 875 875 875 877 879 878 879 881
794 799 804 807 813 822 824 825 828 836 840 845 851 853 860 862 863 866 867 868 870 872 873 874 875 875 876 877 878 879 877 880
798 800 809 813 817 822 823 823 828 838 843 846 851 856 859 861 863 864 866 866 868 870 872 874 875 875 875 876 877 878 880 877
802 804 808 813 817 824 826 831 838 843 846 851 850 853 856 859 860 862 864 865 866 867 870 872 874 874 874 875 875 876 878 879
807 811 814 816 819 820 825 831 838 843 843 842 846 851 853 856 858 860 862 863 864 865 867 870 872 871 872 873 873 874 874 875
806 809 812 816 820 823 827 831 833 835 837 842 845 849 852 853 855 857 858 860 861 863 865 867 868 869 870 871 871 873 872 874
803 807 812 815 820 823 826 827 831 835 838 841 843 845 847 850 851 854 854 855 857 859 861 863 864 865 868 869 869 871 870 871
801 805 810 815 818 822 824 827 831 833 835 837 839 841 842 844 847 849 850 852 854 855 856 858 860 862 864 865 867 868 866 867
797 802 807 811 814 818 823 827 829 831 830 832 834 836 838 840 842 844 845 848 848 850 851 853 855 858 859 861 865 865 862 862
794 798 802 806 810 813 816 819 822 823 824 826 828 829 831 834 836 839 840 842 843 846 847 848 851 853 855 854 855 858 861 862
787 792 796 800 803 806 809 813 814 815 817 819 821 823 826 828 829 832 833 835 838 840 842 844 846 849 851 851 852 854 860 859
782 785 788 793 795 798 802 804 805 807 810 812 814 816 819 821 824 826 828 829 832 834 838 840 841 843 845 847 848 849 851 857
774 778 781 784 787 791 793 795 798 797 799 803 807 810 812 813 816 819 821 824 827 831 833 835 836 835 838 840 843 846 849 854
762 768 772 775 779 782 783 788 787 792 793 796 799 802 804 806 808 811 813 816 820 825 829 830 833 835 835 836 839 843 846 849